FW9118 Weather Reports


time (UTC)temp
F
wind
direction
speed
knots
gust
knots
rain 1hr
in
rain 24hr
in
rain mn
in
humidity
%
barometer
mb
20220812001634 79 175 0.0 2.6 0.00 0.55 0.55 77 1016.2
20220812000114 79 136 1.7 7.0 0.00 0.55 0.55 80 1016.5
20220811234612 79 101 6.1 11.3 0.00 0.55 0.55 82 1016.8
20220811233119 79 0 0.9 2.6 0.00 0.55 0.55 83 1016.2
20220811231612 78 258 0.0 2.6 0.00 0.55 0.55 87 1016.1
20220811230119 78 284 0.9 5.2 0.00 0.55 0.55 87 1016.2
20220811224612 76 269 0.9 3.5 0.00 0.55 0.55 89 1016.1
20220811223111 76 267 3.5 7.8 0.00 0.55 0.55 88 1016.3
20220811221614 75 295 2.6 9.6 0.18 0.55 0.55 87 1017.1
20220811220112 75 360 0.9 3.5 0.24 0.55 0.55 86 1017.4
20220811214613 74 132 0.0 4.3 0.31 0.55 0.55 85 1017.1
20220811213109 73 212 3.5 13.9 0.31 0.55 0.55 87 1017.4
20220811211622 74 234 4.3 14.8 0.25 0.37 0.37 85 1017.9
20220811210116 75 259 5.2 14.8 0.19 0.31 0.31 82 1017.7
20220811204715 76 262 2.6 10.4 0.12 0.24 0.24 78 1017.9
20220811203211 76 279 6.1 20.0 0.12 0.24 0.24 76 1017.5
20220811201613 87 156 2.6 6.1 0.00 0.12 0.12 57 1017.5
20220811200123 88 109 0.9 2.6 0.00 0.12 0.12 52 1017.6
20220811194617 89 171 0.9 5.2 0.00 0.12 0.12 49 1017.6
20220811193117 89 178 0.0 2.6 0.00 0.12 0.12 51 1017.6
20220811191618 89 0 0.0 1.7 0.00 0.12 0.12 52 1017.9
20220811190113 89 78 0.0 4.3 0.00 0.12 0.12 49 1018.2
20220811184614 90 265 0.9 2.6 0.06 0.12 0.12 55 1018.5
20220811183133 88 169 0.0 3.5 0.12 0.12 0.12 59 1018.7
20220811181613 85 169 0.9 2.6 0.12 0.12 0.12 61 1019.1
20220811180117 78 0 0.0 3.5 0.12 0.12 0.12 82 1019.3
20220811174642 80 317 7.8 13.0 0.06 0.06 0.06 70 1020.0
20220811173115 89 346 1.7 6.1 0.00 0.00 0.00 50 1019.9
20220811171607 89 327 1.7 4.3 0.00 0.00 0.00 51 1020.0
20220811170116 89 311 3.5 7.8 0.00 0.00 0.00 50 1020.3
20220811164608 89 318 1.7 7.8 0.00 0.00 0.00 51 1020.4
20220811163115 88 105 3.5 6.1 0.00 0.00 0.00 50 1020.4
20220811161616 88 350 3.5 7.0 0.00 0.00 0.00 49 1020.5
20220811160110 86 249 1.7 5.2 0.00 0.00 0.00 53 1020.4
20220811154609 84 316 0.9 3.5 0.00 0.00 0.00 56 1020.5
20220811153117 82 0 0.0 2.6 0.00 0.00 0.00 63 1020.4
20220811151615 81 0 0.0 2.6 0.00 0.00 0.00 66 1020.4
20220811150114 80 0 0.0 2.6 0.00 0.00 0.00 68 1020.3
20220811144612 80 0 0.0 1.7 0.00 0.00 0.00 69 1020.4
20220811143115 80 251 0.9 2.6 0.00 0.00 0.00 70 1020.1
20220811141612 79 338 0.9 1.7 0.00 0.00 0.00 71 1020.1
20220811140110 79 0 0.0 1.7 0.00 0.00 0.00 72 1020.0
20220811134612 78 0 0.9 3.5 0.00 0.00 0.00 75 1019.6
20220811133219 77 240 0.0 2.6 0.00 0.00 0.00 77 1019.6
20220811131613 76 0 0.0 2.6 0.00 0.00 0.00 78 1019.6
20220811130109 76 207 0.0 1.7 0.00 0.00 0.00 79 1019.4
20220811124609 75 0 0.0 2.6 0.00 0.00 0.00 79 1019.2
20220811123111 75 269 0.0 1.7 0.00 0.00 0.00 79 1019.3
20220811121613 75 0 0.0 0.0 0.00 0.00 0.00 80 1019.3
20220811120108 75 0 0.0 3.5 0.00 0.00 0.00 80 1019.2
20220811114611 75 252 0.0 0.9 0.00 0.00 0.00 80 1019.3
20220811113138 75 252 0.0 1.7 0.00 0.00 0.00 79 1019.1
20220811111608 75 0 0.0 2.6 0.00 0.00 0.00 79 1019.1
20220811110115 75 261 0.9 2.6 0.00 0.00 0.00 79 1019.1
20220811104611 75 250 0.9 2.6 0.00 0.00 0.00 78 1019.2
20220811103109 75 259 0.9 4.3 0.00 0.00 0.00 78 1019.1
20220811101608 76 250 0.0 2.6 0.00 0.00 0.00 78 1019.3
20220811100117 76 0 0.0 2.6 0.00 0.00 0.00 77 1019.4
20220811094621 75 0 0.9 2.6 0.00 0.00 0.00 77 1019.3
20220811093113 75 186 0.0 3.5 0.00 0.00 0.00 77 1019.6
20220811091625 75 0 0.0 3.5 0.00 0.00 0.00 77 1019.7
20220811090106 75 0 0.0 0.0 0.00 0.00 0.00 76 1019.8
20220811084607 75 0 0.0 1.7 0.00 0.00 0.00 76 1019.7
20220811083113 75 0 0.0 1.7 0.00 0.00 0.00 76 1019.6
20220811081617 75 0 0.0 0.9 0.00 0.00 0.00 77 1019.6
20220811080118 75 0 0.0 1.7 0.00 0.00 0.00 76 1019.9
20220811074610 76 0 0.0 3.5 0.00 0.00 0.00 75 1020.2
20220811073112 76 101 0.0 2.6 0.00 0.00 0.00 75 1020.3
20220811071624 76 178 0.0 4.3 0.00 0.00 0.00 76 1020.4
20220811070115 76 126 0.9 5.2 0.00 0.00 0.00 75 1020.6
20220811064609 76 142 0.9 7.0 0.00 0.00 0.00 75 1020.7
20220811063131 76 202 1.7 6.1 0.00 0.00 0.00 74 1020.7
20220811061607 76 131 1.7 5.2 0.00 0.00 0.00 73 1020.8
20220811060118 75 0 0.0 0.9 0.00 0.00 0.00 72 1020.8
20220811054605 75 0 0.0 0.0 0.00 0.00 0.00 71 1020.5
20220811053107 76 0 0.0 0.0 0.00 0.00 0.00 69 1020.5
20220811051644 76 0 0.0 0.9 0.00 0.00 0.00 69 1020.4
20220811050115 77 0 0.0 2.6 0.00 0.00 0.00 68 1020.3
20220811044607 77 131 0.0 1.7 0.00 0.00 0.00 68 1020.5
20220811043113 77 106 0.9 1.7 0.00 0.00 0.00 67 1020.6
20220811041610 78 106 0.9 1.7 0.00 0.00 0.00 66 1020.7
20220811040138 79 0 0.0 3.5 0.00 0.00 0.00 65 1020.6
20220811034619 79 88 2.6 4.3 0.00 0.00 0.00 64 1020.5
20220811033210 79 115 2.6 6.1 0.00 0.00 0.00 64 1020.3
20220811032427 80 89 1.7 6.1 0.00 0.00 0.00 64 1020.4
20220811030108 80 50 0.9 6.1 0.00 0.00 0.00 64 1020.4
20220811024604 80 76 2.6 5.2 0.00 0.00 0.00 65 1020.0
20220811023112 81 90 1.7 3.5 0.00 0.00 0.00 64 1019.7
20220811021608 81 0 0.9 4.3 0.00 0.00 0.00 63 1019.6
20220811020109 82 82 2.6 4.3 0.00 0.00 0.00 62 1019.4
20220811014613 82 51 1.7 3.5 0.00 0.00 0.00 61 1019.3
20220811013109 83 25 1.7 5.2 0.00 0.00 0.00 60 1019.1
20220811011607 83 15 1.7 4.3 0.00 0.00 0.00 59 1019.0
20220811010111 83 19 1.7 5.2 0.00 0.00 0.00 59 1018.9
20220811004605 84 26 1.7 6.1 0.00 0.00 0.00 59 1019.0
20220811003127 84 51 3.5 10.4 0.00 0.00 0.00 58 1018.9